FW3096 Weather Reports


time (UTC)temp
F
wind
direction
speed
knots
gust
knots
rain 1hr
in
rain 24hr
in
rain mn
in
humidity
%
barometer
mb
20260506202008 67 183 0.9 9.6 0.00 0.07 0.07 83 1008.3
20260506201010 67 256 0.9 10.4 0.00 0.07 0.07 85 1008.3
20260506200508 66 226 2.6 10.4 0.00 0.07 0.07 85 1008.3
20260506200009 66 267 0.9 4.3 0.00 0.07 0.07 86 1008.4
20260506195510 66 198 0.0 5.2 0.00 0.07 0.07 86 1008.5
20260506195009 65 336 1.7 7.8 0.00 0.07 0.07 86 1008.6
20260506194507 65 250 2.6 7.8 0.00 0.07 0.07 86 1008.7
20260506194009 65 340 2.6 7.8 0.00 0.07 0.07 85 1008.7
20260506193009 65 126 0.9 8.7 0.00 0.07 0.07 86 1008.8
20260506192510 65 149 0.9 6.1 0.00 0.07 0.07 86 1008.8
20260506192009 65 171 1.7 8.7 0.00 0.07 0.07 87 1008.9
20260506191507 64 323 3.5 8.7 0.00 0.07 0.07 87 1009.0
20260506191009 64 232 0.9 8.7 0.00 0.07 0.07 87 1009.0
20260506190508 64 191 2.6 8.7 0.00 0.07 0.07 87 1009.1
20260506190009 64 196 2.6 7.0 0.00 0.07 0.07 87 1009.2
20260506185508 64 225 2.6 8.7 0.00 0.07 0.07 87 1009.2
20260506185010 64 360 1.7 11.3 0.00 0.07 0.07 87 1009.0
20260506184008 64 235 2.6 6.1 0.00 0.07 0.07 88 1009.2
20260506182510 63 155 1.7 8.7 0.00 0.07 0.07 89 1009.4
20260506182010 63 355 3.5 8.7 0.00 0.07 0.07 90 1009.5
20260506181509 63 333 1.7 4.3 0.00 0.07 0.07 90 1009.6
20260506180509 63 273 1.7 7.8 0.00 0.07 0.07 90 1009.4
20260506180011 63 197 0.9 6.1 0.00 0.07 0.07 91 1009.6
20260506175509 62 293 0.9 5.2 0.00 0.07 0.07 91 1009.7
20260506175011 62 288 1.7 6.1 0.00 0.07 0.07 91 1009.7
20260506174508 62 204 3.5 6.1 0.00 0.07 0.07 91 1009.7
20260506173510 62 90 0.9 10.4 0.00 0.07 0.07 91 1009.8
20260506173009 62 175 1.7 10.4 0.00 0.07 0.07 91 1009.7
20260506172008 62 131 0.9 3.5 0.00 0.07 0.07 92 1009.8
20260506171508 62 136 0.9 9.6 0.01 0.07 0.07 92 1009.7
20260506170509 62 233 2.6 7.8 0.02 0.07 0.07 92 1010.0
20260506170010 62 48 3.5 7.8 0.03 0.07 0.07 92 1010.0
20260506165010 62 225 1.7 8.7 0.04 0.07 0.07 93 1010.0
20260506164009 62 271 0.9 7.0 0.05 0.07 0.07 93 1010.0
20260506163010 62 173 0.0 4.3 0.05 0.07 0.07 92 1010.2
20260506162507 62 148 0.9 4.3 0.05 0.07 0.07 92 1010.1
20260506162010 62 117 1.7 4.3 0.06 0.07 0.07 93 1010.2
20260506161508 62 157 0.9 4.3 0.05 0.06 0.06 92 1010.4
20260506161008 62 189 1.7 5.2 0.05 0.05 0.05 92 1010.5
20260506160509 62 160 1.7 7.8 0.05 0.05 0.05 91 1010.7
20260506160011 62 146 2.6 7.8 0.04 0.04 0.04 90 1010.9
20260506155508 62 317 0.9 5.2 0.04 0.04 0.04 89 1011.2
20260506154508 63 46 3.5 8.7 0.03 0.03 0.03 89 1011.3
20260506154009 63 223 0.9 3.5 0.02 0.02 0.02 89 1011.2
20260506153509 63 34 0.0 6.1 0.02 0.02 0.02 87 1011.3
20260506153009 63 215 0.0 6.1 0.02 0.02 0.02 87 1011.3
20260506152508 63 238 2.6 7.0 0.02 0.02 0.02 86 1011.3
20260506152010 63 309 1.7 7.8 0.01 0.01 0.01 85 1011.1
20260506151508 64 233 0.9 7.8 0.01 0.01 0.01 83 1011.0
20260506151008 64 241 3.5 7.8 0.00 0.00 0.00 83 1011.0
20260506150009 64 171 0.9 6.1 0.00 0.00 0.00 81 1010.9
20260506145508 65 202 2.6 7.0 0.00 0.00 0.00 80 1011.0
20260506145010 65 283 0.9 7.0 0.00 0.00 0.00 80 1011.1
20260506144009 66 187 3.5 9.6 0.00 0.00 0.00 79 1011.0
20260506143508 66 203 2.6 7.8 0.00 0.00 0.00 78 1010.9
20260506142508 66 128 1.7 7.0 0.00 0.00 0.00 77 1011.2
20260506142008 67 5 3.5 7.0 0.00 0.00 0.00 75 1011.1
20260506141509 67 218 3.5 6.1 0.00 0.00 0.00 74 1011.2
20260506141008 67 315 1.7 8.7 0.00 0.00 0.00 73 1011.1
20260506140508 67 70 2.6 10.4 0.00 0.00 0.00 73 1011.1
20260506140008 68 265 1.7 10.4 0.00 0.00 0.00 72 1011.0
20260506135507 68 278 4.3 8.7 0.00 0.00 0.00 72 1011.0
20260506135009 69 260 3.5 7.8 0.00 0.00 0.00 72 1010.9
20260506133508 67 181 3.5 8.7 0.00 0.00 0.00 75 1010.9
20260506133008 66 271 1.7 6.1 0.00 0.00 0.00 76 1011.0
20260506132506 66 130 2.6 7.8 0.00 0.00 0.00 75 1011.1
20260506132009 66 336 0.9 7.8 0.00 0.00 0.00 76 1011.1
20260506131507 66 186 2.6 10.4 0.00 0.00 0.00 76 1011.0
20260506131007 66 167 3.5 10.4 0.00 0.00 0.00 76 1011.1
20260506125010 66 227 1.7 11.3 0.00 0.00 0.00 77 1011.4
20260506124507 66 355 3.5 11.3 0.00 0.00 0.00 77 1011.4
20260506124009 66 142 3.5 7.0 0.00 0.00 0.00 77 1011.3
20260506122011 66 13 1.7 10.4 0.00 0.00 0.00 79 1011.3
20260506121008 66 168 3.5 8.7 0.00 0.00 0.00 79 1011.1
20260506120508 66 169 2.6 5.2 0.00 0.00 0.00 79 1011.1
20260506120010 65 85 2.6 7.0 0.00 0.00 0.00 81 1011.0
20260506115507 64 192 2.6 7.0 0.00 0.00 0.00 82 1011.1
20260506114508 64 81 1.7 5.2 0.00 0.00 0.00 82 1011.0
20260506114008 64 150 1.7 9.6 0.00 0.00 0.00 82 1011.0
20260506113509 64 157 3.5 9.6 0.00 0.00 0.00 82 1010.9
20260506113009 63 215 3.5 7.8 0.00 0.00 0.00 83 1011.0
20260506112507 63 165 3.5 7.0 0.00 0.00 0.00 83 1011.0
20260506112010 63 76 2.6 7.0 0.00 0.00 0.00 83 1011.1
20260506111508 63 166 1.7 7.8 0.00 0.00 0.00 83 1010.9
20260506111008 63 78 3.5 8.7 0.00 0.00 0.00 83 1011.1
20260506110510 63 136 3.5 8.7 0.00 0.00 0.00 83 1011.0
20260506110011 63 235 2.6 7.0 0.00 0.00 0.00 84 1010.9
20260506105508 63 145 1.7 4.3 0.00 0.00 0.00 84 1010.9
20260506105010 63 162 1.7 5.2 0.00 0.00 0.00 84 1011.1
20260506104507 63 181 1.7 6.1 0.00 0.00 0.00 84 1011.0
20260506104009 63 108 0.9 6.1 0.00 0.00 0.00 84 1010.9
20260506103507 63 92 0.9 6.1 0.00 0.00 0.00 84 1011.0
20260506103009 62 157 1.7 7.0 0.00 0.00 0.00 85 1011.0
20260506101010 62 171 0.9 6.1 0.00 0.00 0.00 84 1010.9
20260506100508 62 180 1.7 7.8 0.00 0.00 0.00 84 1010.9
20260506100009 63 213 2.6 7.8 0.00 0.00 0.00 84 1010.9
20260506095508 63 105 1.7 6.1 0.00 0.00 0.00 84 1010.9
20260506095008 63 158 0.0 3.5 0.00 0.00 0.00 84 1011.0
20260506094507 63 188 0.9 5.2 0.00 0.00 0.00 83 1011.1
20260506094009 63 75 0.0 3.5 0.00 0.00 0.00 83 1011.1
20260506093007 63 94 0.9 5.2 0.00 0.00 0.00 83 1011.0
20260506092509 63 301 0.9 3.5 0.00 0.00 0.00 83 1011.0
20260506092008 63 182 1.7 7.0 0.00 0.00 0.00 83 1010.9
20260506091506 63 200 3.5 7.8 0.00 0.00 0.00 83 1010.9
20260506091009 64 140 0.0 3.5 0.00 0.00 0.00 82 1011.0
20260506090506 64 213 0.9 4.3 0.00 0.00 0.00 82 1011.0
20260506090008 64 171 2.6 4.3 0.00 0.00 0.00 82 1011.0
20260506085508 64 198 1.7 4.3 0.00 0.00 0.00 82 1011.1
20260506085007 64 210 0.9 4.3 0.00 0.00 0.00 82 1011.1
20260506084507 64 87 0.9 5.2 0.00 0.00 0.00 82 1011.2
20260506084009 64 86 0.9 5.2 0.00 0.00 0.00 82 1011.0
20260506083508 64 181 1.7 5.2 0.00 0.00 0.00 82 1011.1
20260506082507 64 161 0.9 6.1 0.00 0.00 0.00 82 1011.1
20260506082010 64 167 0.9 4.3 0.00 0.00 0.00 81 1011.1
20260506081508 64 167 1.7 4.3 0.00 0.00 0.00 82 1011.3
20260506081009 64 165 2.6 4.3 0.00 0.00 0.00 82 1011.2
20260506080509 64 157 0.9 5.2 0.00 0.00 0.00 82 1011.2
20260506073508 64 144 0.9 2.6 0.00 0.00 0.00 81 1011.2
20260506073008 64 162 0.0 2.6 0.00 0.00 0.00 81 1011.3
20260506072506 64 207 0.9 2.6 0.00 0.00 0.00 81 1011.3
20260506072009 64 96 0.0 2.6 0.00 0.00 0.00 81 1011.3
20260506071008 64 157 0.0 2.6 0.00 0.00 0.00 81 1011.3
20260506070507 64 196 0.9 3.5 0.00 0.00 0.00 81 1011.3
20260506062009 65 166 0.0 4.3 0.00 0.00 0.00 78 1011.7
20260506061507 65 139 0.9 3.5 0.00 0.00 0.00 78 1011.5
20260506061008 65 138 0.0 3.5 0.00 0.00 0.00 78 1011.5
20260506060508 66 159 0.0 3.5 0.00 0.00 0.00 78 1011.5
20260506051009 66 190 0.9 4.3 0.00 0.00 0.00 76 1011.9
20260506050507 66 145 1.7 4.3 0.00 0.00 0.00 76 1012.0
20260506045009 66 118 1.7 5.2 0.00 0.00 0.00 76 1012.2
20260506044508 66 173 1.7 7.8 0.00 0.00 0.00 75 1012.2
20260506044010 66 166 3.5 7.8 0.00 0.00 0.00 75 1012.2
20260506043508 66 167 1.7 5.2 0.00 0.00 0.00 75 1012.2
20260506043009 66 103 0.0 6.1 0.00 0.00 0.00 74 1012.2
20260506042510 66 93 0.0 6.1 0.00 0.00 0.00 73 1012.2
20260506042009 66 148 0.0 3.5 0.00 0.00 0.00 73 1012.2
20260506041509 66 198 0.0 2.6 0.00 0.00 0.00 73 1012.2
20260506041011 67 178 0.0 4.3 0.00 0.00 0.00 72 1012.2
20260506040508 67 161 0.9 4.3 0.00 0.00 0.00 72 1012.1
20260506040016 67 122 0.9 3.5 0.00 0.00 0.00 71 1012.1
20260506035510 67 150 0.0 6.1 0.00 0.00 0.00 71 1012.1
20260506035010 67 170 1.7 6.1 0.00 0.00 0.00 71 1012.2
20260506034509 67 234 2.6 5.2 0.00 0.00 0.00 71 1012.2
20260506034011 67 165 2.6 7.8 0.00 0.00 0.00 71 1012.1
20260506033509 67 138 3.5 7.8 0.00 0.00 0.00 70 1012.1
20260506033009 67 121 1.7 4.3 0.00 0.00 0.00 70 1012.0
20260506032510 67 145 1.7 4.3 0.00 0.00 0.00 69 1011.9
20260506032009 68 163 1.7 5.2 0.00 0.00 0.00 69 1011.9
20260506031510 68 161 1.7 6.1 0.00 0.00 0.00 69 1011.9
20260506030509 68 57 2.6 5.2 0.00 0.00 0.00 68 1012.1
20260506025009 68 213 1.7 6.1 0.00 0.00 0.00 67 1012.0
20260506024511 69 167 1.7 4.3 0.00 0.00 0.00 66 1012.1
20260506024009 69 155 0.0 4.3 0.00 0.00 0.00 65 1012.2
20260506023508 69 175 1.7 4.3 0.00 0.00 0.00 65 1012.2
20260506023011 70 172 0.0 5.2 0.00 0.00 0.00 64 1012.2
20260506022508 70 146 1.7 5.2 0.00 0.00 0.00 63 1012.1
20260506021510 70 151 1.7 6.1 0.00 0.00 0.00 61 1012.0
20260506021009 71 149 0.0 4.3 0.00 0.00 0.00 61 1012.0
20260506020509 71 73 1.7 7.0 0.00 0.00 0.00 60 1011.9
20260506020013 71 154 1.7 6.1 0.00 0.00 0.00 60 1011.9
20260506015509 71 148 2.6 7.8 0.00 0.00 0.00 59 1011.8
20260506015009 71 153 2.6 7.8 0.00 0.00 0.00 59 1011.8
20260506014510 71 171 2.6 7.0 0.00 0.00 0.00 58 1011.9
20260506014009 72 139 1.7 6.1 0.00 0.00 0.00 58 1011.7
20260506013508 72 150 2.6 7.0 0.00 0.00 0.00 58 1011.6
20260506013012 72 162 3.5 7.0 0.00 0.00 0.00 57 1011.6
20260506012010 72 194 2.6 6.1 0.00 0.00 0.00 57 1011.5
20260506011509 72 170 2.6 6.1 0.00 0.00 0.00 56 1011.5
20260506011009 72 150 1.7 4.3 0.00 0.00 0.00 56 1011.5
20260506010508 72 191 1.7 5.2 0.00 0.00 0.00 56 1011.4
20260506010011 72 27 1.7 4.3 0.00 0.00 0.00 56 1011.4
20260506005509 72 230 1.7 4.3 0.00 0.00 0.00 55 1011.3
20260506005009 72 134 0.9 5.2 0.00 0.00 0.00 55 1011.2
20260506004508 72 143 0.9 5.2 0.00 0.00 0.00 54 1011.1
20260506004011 73 175 2.6 5.2 0.00 0.00 0.00 54 1011.2
20260506003508 73 348 0.9 6.1 0.00 0.00 0.00 53 1011.2
20260506002510 73 98 1.7 7.0 0.00 0.00 0.00 52 1011.0
20260506001011 74 197 2.6 7.0 0.00 0.00 0.00 51 1010.7
20260506000509 74 277 2.6 11.3 0.00 0.00 0.00 51 1010.7
20260505235009 74 178 1.7 6.1 0.00 0.00 0.00 51 1010.3
20260505234509 75 158 0.9 8.7 0.00 0.00 0.00 51 1010.4
20260505234011 75 109 4.3 8.7 0.00 0.00 0.00 50 1010.3
20260505233509 75 156 2.6 7.0 0.00 0.00 0.00 51 1010.4
20260505232510 76 168 3.5 7.8 0.00 0.00 0.00 50 1010.2
20260505232010 76 138 2.6 6.1 0.00 0.00 0.00 50 1010.3
20260505231508 76 207 0.9 10.4 0.00 0.00 0.00 50 1010.2
20260505231013 77 157 4.3 10.4 0.00 0.00 0.00 50 1010.2
20260505230509 77 162 3.5 8.7 0.00 0.00 0.00 49 1010.1
20260505225508 77 148 2.6 5.2 0.00 0.00 0.00 48 1010.2
20260505224509 77 154 1.7 7.8 0.00 0.00 0.00 49 1010.0
20260505224009 78 109 3.5 7.8 0.00 0.00 0.00 49 1010.1
20260505223508 78 138 1.7 4.3 0.00 0.00 0.00 49 1010.0
20260505223010 78 207 1.7 5.2 0.00 0.00 0.00 48 1010.2
20260505222009 79 141 1.7 10.4 0.00 0.00 0.00 45 1010.3
20260505221509 79 255 3.5 10.4 0.00 0.00 0.00 43 1010.4
20260505221009 79 248 3.5 10.4 0.00 0.00 0.00 42 1010.4
20260505220508 80 202 2.6 10.4 0.00 0.00 0.00 41 1010.4
20260505220010 80 235 4.3 13.0 0.00 0.00 0.00 40 1010.2
20260505214508 81 155 5.2 10.4 0.00 0.00 0.00 39 1010.0
20260505214011 81 218 2.6 10.4 0.00 0.00 0.00 39 1010.1
20260505213509 81 114 4.3 12.2 0.00 0.00 0.00 40 1010.2
20260505213009 81 127 5.2 13.0 0.00 0.00 0.00 38 1010.3
20260505212009 81 159 4.3 8.7 0.00 0.00 0.00 39 1010.0
20260505211508 81 273 1.7 8.7 0.00 0.00 0.00 40 1010.1
20260505211011 81 229 2.6 11.3 0.00 0.00 0.00 39 1010.1
20260505210508 81 225 2.6 11.3 0.00 0.00 0.00 39 1010.1
20260505210012 81 198 4.3 12.2 0.00 0.00 0.00 38 1010.1
20260505205509 81 248 2.6 11.3 0.00 0.00 0.00 38 1010.0
20260505205008 81 242 4.3 13.0 0.00 0.00 0.00 38 1010.0
20260505204507 81 184 6.1 13.0 0.00 0.00 0.00 38 1010.0
20260505204009 81 18 3.5 13.0 0.00 0.00 0.00 38 1010.0
20260505203508 82 101 3.5 8.7 0.00 0.00 0.00 37 1010.1
20260505203008 81 310 3.5 12.2 0.00 0.00 0.00 38 1010.0
20260505202507 81 218 4.3 12.2 0.00 0.00 0.00 36 1010.0